• In Netherlands
  • List of Countries
  • For 7 days
  • Water Temperature
  • Satellite Maps
  • Weather Map
  • Weather Widgets
  • user-avatar
    Login

    Hourly Weather Salzburg

    Today, 18 January, Wednesday

    Time Temperature Precipitation Wind Pressure Humidity
    00:00 -19°C° 0 mm 1 mps 625 mmHg 99%
    01:00 -19°C° 0 mm 1 mps 624 mmHg 99%
    02:00 -20°C° 0 mm 1 mps 624 mmHg 98%
    03:00 -20°C° 0 mm 1 mps 624 mmHg 98%
    04:00 -21°C° 0 mm 1 mps 623 mmHg 98%
    05:00 -21°C° 0 mm 1 mps 623 mmHg 98%
    06:00 -22°C° 0 mm 1 mps 623 mmHg 98%
    07:00 -23°C° 0 mm 1 mps 623 mmHg 98%
    08:00 -20°C° 0 mm 1 mps 624 mmHg 95%
    09:00 -17°C° 0 mm 1 mps 626 mmHg 93%
    10:00 -14°C° 0 mm 1 mps 627 mmHg 91%
    11:00 -12°C° 0 mm 1 mps 628 mmHg 92%
    12:00 -13°C° 0 mm 2 mps 628 mmHg 93%
    13:00 -12°C° 0 mm 2 mps 628 mmHg 94%
    14:00 -13°C° 0 mm 2 mps 628 mmHg 95%
    15:00 -13°C° 0 mm 2 mps 628 mmHg 96%
    16:00 -14°C° 0 mm 2 mps 627 mmHg 98%
    17:00 -16°C° 0 mm 2 mps 627 mmHg 98%
    18:00 -16°C° 0 mm 1 mps 626 mmHg 98%
    19:00 -18°C° 0 mm 1 mps 625 mmHg 99%
    20:00 -19°C° 0 mm 1 mps 625 mmHg 98%
    21:00 -20°C° 0 mm 1 mps 624 mmHg 98%
    22:00 -21°C° 0 mm 1 mps 624 mmHg 98%
    23:00 -20°C° 0 mm 1 mps 624 mmHg 98%

    Tomorrow, 19 January, Thursday

    Time Temperature Precipitation Wind Pressure Humidity
    00:00 -20°C° 0 mm 1 mps 624 mmHg 98%
    01:00 -20°C° 0 mm 1 mps 625 mmHg 98%
    02:00 -20°C° 0 mm 1 mps 625 mmHg 98%
    03:00 -20°C° 0 mm 1 mps 624 mmHg 98%
    04:00 -20°C° 0 mm 1 mps 624 mmHg 98%
    05:00 -20°C° 0 mm 1 mps 624 mmHg 98%
    06:00 -20°C° 0 mm 1 mps 624 mmHg 98%
    07:00 -20°C° 0 mm 1 mps 625 mmHg 98%
    08:00 -17°C° 0 mm 1 mps 626 mmHg 96%
    09:00 -14°C° 0 mm 1 mps 628 mmHg 95%
    10:00 -11°C° 0 mm 1 mps 629 mmHg 93%
    11:00 -10°C° 0 mm 1 mps 629 mmHg 94%
    12:00 -8°C° 0 mm 1 mps 630 mmHg 94%
    13:00 -7°C° 0 mm 1 mps 630 mmHg 95%
    14:00 -8°C° 0 mm 1 mps 629 mmHg 96%
    15:00 -9°C° 0 mm 1 mps 629 mmHg 97%
    16:00 -10°C° 0 mm 1 mps 628 mmHg 98%
    17:00 -13°C° 0 mm 1 mps 627 mmHg 98%
    18:00 -15°C° 0 mm 1 mps 626 mmHg 98%
    19:00 -18°C° 0 mm 1 mps 625 mmHg 98%
    20:00 -18°C° 0 mm 1 mps 625 mmHg 98%
    21:00 -18°C° 0 mm 1 mps 625 mmHg 98%
    22:00 -19°C° 0 mm 1 mps 625 mmHg 98%
    23:00 -18°C° 0 mm 1 mps 625 mmHg 98%

    Day after tomorrow, 20 January, Friday

    Time Temperature Precipitation Wind Pressure Humidity
    00:00 -18°C° 0 mm 1 mps 625 mmHg 97%
    01:00 -18°C° 0 mm 1 mps 625 mmHg 96%
    02:00 -18°C° 0 mm 1 mps 625 mmHg 96%
    03:00 -18°C° 0 mm 1 mps 625 mmHg 95%
    04:00 -18°C° 0 mm 1 mps 625 mmHg 94%
    05:00 -18°C° 0 mm 1 mps 625 mmHg 94%
    06:00 -18°C° 0 mm 1 mps 625 mmHg 94%
    07:00 -17°C° 0 mm 1 mps 625 mmHg 93%
    08:00 -15°C° 0 mm 1 mps 626 mmHg 93%
    09:00 -13°C° 0 mm 1 mps 628 mmHg 92%
    10:00 -10°C° 0 mm 1 mps 629 mmHg 92%
    11:00 -9°C° 0 mm 1 mps 629 mmHg 92%
    12:00 -7°C° 0 mm 1 mps 629 mmHg 93%
    13:00 -6°C° 0 mm 1 mps 629 mmHg 94%
    14:00 -7°C° 0 mm 1 mps 629 mmHg 95%
    15:00 -8°C° 0 mm 1 mps 628 mmHg 97%
    16:00 -9°C° 0 mm 1 mps 628 mmHg 98%
    17:00 -11°C° 0 mm 1 mps 627 mmHg 98%
    18:00 -14°C° 0 mm 1 mps 626 mmHg 98%
    19:00 -16°C° 0 mm 1 mps 625 mmHg 99%
    20:00 -16°C° 0 mm 1 mps 625 mmHg 98%
    21:00 -16°C° 0 mm 1 mps 625 mmHg 97%
    22:00 -16°C° 0 mm 1 mps 625 mmHg 96%
    23:00 -16°C° 0 mm 1 mps 625 mmHg 95%

    21 January, Saturday

    Time Temperature Precipitation Wind Pressure Humidity
    00:00 -16°C° 0 mm 1 mps 625 mmHg 95%
    01:00 -16°C° 0 mm 1 mps 625 mmHg 95%
    02:00 -17°C° 0 mm 1 mps 625 mmHg 94%
    03:00 -17°C° 0 mm 1 mps 624 mmHg 94%
    04:00 -17°C° 0 mm 1 mps 624 mmHg 94%
    05:00 -17°C° 0 mm 1 mps 624 mmHg 94%
    06:00 -17°C° 0 mm 1 mps 624 mmHg 93%
    07:00 -17°C° 0 mm 1 mps 624 mmHg 93%
    08:00 -14°C° 0 mm 1 mps 625 mmHg 92%
    09:00 -11°C° 0 mm 1 mps 627 mmHg 91%
    10:00 -8°C° 0 mm 1 mps 628 mmHg 91%
    11:00 -7°C° 0 mm 1 mps 629 mmHg 92%
    12:00 -6°C° 0 mm 1 mps 629 mmHg 93%
    13:00 -3°C° 0 mm 1 mps 629 mmHg 94%
    14:00 -4°C° 0 mm 1 mps 628 mmHg 95%
    15:00 -7°C° 0 mm 1 mps 628 mmHg 96%
    16:00 -8°C° 0 mm 1 mps 627 mmHg 97%
    17:00 -10°C° 0 mm 1 mps 627 mmHg 96%
    18:00 -11°C° 0 mm 1 mps 626 mmHg 96%
    19:00 -15°C° 0 mm 2 mps 626 mmHg 95%
    20:00 -15°C° 0 mm 2 mps 626 mmHg 95%
    21:00 -15°C° 0 mm 2 mps 626 mmHg 94%
    22:00 -15°C° 0 mm 2 mps 626 mmHg 93%
    23:00 -15°C° 0 mm 2 mps 626 mmHg 93%

    22 January, Sunday

    Time Temperature Precipitation Wind Pressure Humidity
    00:00 -15°C° 0 mm 2 mps 626 mmHg 93%
    01:00 -16°C° 0 mm 2 mps 626 mmHg 93%
    02:00 -16°C° 0 mm 2 mps 626 mmHg 93%
    03:00 -16°C° 0 mm 2 mps 625 mmHg 93%
    04:00 -16°C° 0 mm 2 mps 625 mmHg 93%
    05:00 -16°C° 0 mm 2 mps 625 mmHg 92%
    06:00 -16°C° 0 mm 2 mps 625 mmHg 92%
    07:00 -16°C° 0 mm 2 mps 625 mmHg 92%
    08:00 -14°C° 0 mm 2 mps 626 mmHg 91%
    09:00 -12°C° 0 mm 2 mps 627 mmHg 91%
    10:00 -9°C° 0 mm 2 mps 628 mmHg 91%
    11:00 -8°C° 0 mm 2 mps 628 mmHg 92%
    12:00 -6°C° 0 mm 2 mps 628 mmHg 94%
    13:00 -5°C° 0 mm 2 mps 628 mmHg 95%
    14:00 -6°C° 0 mm 2 mps 627 mmHg 95%
    15:00 -6°C° 0 mm 2 mps 627 mmHg 95%
    16:00 -7°C° 0 mm 2 mps 626 mmHg 94%
    17:00 -9°C° 0 mm 2 mps 626 mmHg 94%
    18:00 -10°C° 0 mm 2 mps 625 mmHg 94%
    19:00 -13°C° 0 mm 2 mps 624 mmHg 93%
    20:00 -13°C° 0 mm 2 mps 624 mmHg 93%
    21:00 -13°C° 0 mm 2 mps 624 mmHg 93%
    22:00 -13°C° 0 mm 2 mps 624 mmHg 93%
    23:00 -13°C° 0 mm 2 mps 624 mmHg 92%

    23 January, Monday

    Time Temperature Precipitation Wind Pressure Humidity
    00:00 -12°C° 0 mm 2 mps 624 mmHg 92%
    01:00 -12°C° 0 mm 2 mps 624 mmHg 92%
    02:00 -12°C° 0 mm 2 mps 624 mmHg 92%
    03:00 -12°C° 0 mm 2 mps 624 mmHg 92%
    04:00 -10°C° 0 mm 1 mps 623 mmHg 92%
    05:00 -11°C° 0 mm 1 mps 623 mmHg 92%
    06:00 -11°C° 0 mm 1 mps 623 mmHg 92%
    07:00 -11°C° 0 mm 1 mps 623 mmHg 92%
    08:00 -9°C° 0 mm 1 mps 624 mmHg 92%
    09:00 -7°C° 0 mm 1 mps 625 mmHg 92%
    10:00 -4°C° 0 mm 1 mps 626 mmHg 93%
    11:00 -3°C° 0 mm 1 mps 626 mmHg 94%
    12:00 -2°C° 0 mm 1 mps 627 mmHg 95%
    13:00 -1°C° 0 mm 1 mps 627 mmHg 96%
    14:00 -2°C° 0 mm 1 mps 626 mmHg 97%
    15:00 -3°C° 0 mm 1 mps 626 mmHg 97%
    16:00 -5°C° 0 mm 0 mps 626 mmHg 97%
    17:00 -8°C° 0 mm 0 mps 624 mmHg 98%
    18:00 -11°C° 0 mm 0 mps 623 mmHg 99%
    19:00 -14°C° 0 mm 0 mps 622 mmHg 99%
    20:00 -15°C° 0 mm 0 mps 622 mmHg 99%
    21:00 -16°C° 0 mm 0 mps 622 mmHg 99%
    22:00 -17°C° 0 mm 0 mps 622 mmHg 99%
    23:00 -17°C° 0 mm 1 mps 622 mmHg 99%
    Show more